Flag for Morocco Weather past 2 weeks in Tangier, Morocco

Now
77 °F

Passing clouds.


Feels Like: 79 °F
Forecast: 69 / 82 °F
Wind: 7 mph from Northwest

Location: Tanger Aerodrome

Current Time: Aug 23, 2014 at 7:40:08 PM

Latest Report: Aug 23, 2014 at 7:00 PM


Visibility: N/A

Pressure: 30.01 "Hg

Humidity: 54%

Dew point: 59 °F

Location of TangierLocation

Historic Weather in Tangier — Graph

°F

Tangier temperature yesterday

Maximum temperature yesterday: 79 °F (at 2:00 PM)
Minimum temperature yesterday: 63 °F (at 12:00 AM)
Average temperature yesterday: 71 °F

Past Weeks' High & Low Weather Summary

 TemperatureHumidityPressure
High91 °F (Aug 16, 3:00 PM)94% (Aug 12, 7:30 AM)30.09 "Hg (Aug 12, 7:30 AM)
Low59 °F (Aug 21, 7:00 AM)30% (Aug 12, 5:00 PM)29.74 "Hg (Aug 17, 7:30 PM)
Average74 °F69%29.97 "Hg
* Reported Aug 8 6:00 PM — Aug 23 6:30 PM, Tangier, Weather by CustomWeather, © 2014

Note: Actual official high and low records may vary slightly from our data, if they occured in-between our weather recording intervals... More about our weather records

Advertising

Tangier weather history for previous 24 hours

 ConditionsComfort  
Time TempWeatherWind HumidityBarometerVisibility
6:30 PM
Aug 23
79 °FPassing clouds.5 mph45%30.01 "HgN/A
6:00 PM79 °FPassing clouds.7 mph42%30.01 "HgN/A
5:30 PM79 °FPassing clouds.9 mph48%30.04 "HgN/A
5:00 PM79 °FPassing clouds.9 mph51%30.04 "HgN/A
4:30 PM79 °FPassing clouds.10 mph51%30.04 "HgN/A
4:00 PM79 °FPassing clouds.8 mph58%30.04 "HgN/A
3:30 PM81 °FPassing clouds.9 mph51%30.04 "HgN/A
3:00 PM79 °FPassing clouds.7 mph58%30.04 "HgN/A
2:30 PM79 °FPassing clouds.9 mph54%30.04 "HgN/A
2:00 PM79 °FSunny.9 mph54%30.04 "Hg10 mi
1:30 PM77 °FPassing clouds.9 mph65%30.04 "HgN/A
1:00 PM77 °FPassing clouds.9 mph61%30.07 "HgN/A
12:30 PM77 °FPassing clouds.9 mph61%30.07 "HgN/A
12:00 PM77 °FPassing clouds.8 mph61%30.07 "HgN/A
11:30 AM75 °FPassing clouds.9 mph65%30.07 "HgN/A
11:00 AM75 °FPassing clouds.9 mph65%30.07 "HgN/A
10:30 AM75 °FPassing clouds.10 mph69%30.07 "HgN/A
10:00 AM73 °FPassing clouds.12 mph74%30.07 "HgN/A
9:30 AM73 °FPassing clouds.9 mph69%30.04 "HgN/A
9:00 AM72 °FPassing clouds.9 mph73%30.04 "HgN/A
8:30 AM68 °FPassing clouds.9 mph78%30.04 "HgN/A
8:00 AM68 °FPassing clouds.8 mph78%30.04 "HgN/A
7:30 AM66 °FPassing clouds.5 mph83%30.01 "HgN/A
7:00 AM63 °FPassing clouds.No wind83%30.01 "HgN/A
6:30 AM61 °FPassing clouds.No wind88%30.01 "HgN/A
6:00 AM61 °FPassing clouds.No wind83%30.01 "HgN/A
5:30 AM61 °FPassing clouds.No wind88%30.01 "HgN/A
5:00 AM61 °FPassing clouds.No wind88%30.01 "HgN/A
4:30 AM63 °FPassing clouds.No wind83%30.01 "HgN/A
4:00 AM63 °FPassing clouds.No wind88%30.01 "HgN/A
3:30 AM64 °FPassing clouds.No wind83%30.01 "HgN/A
3:00 AM63 °FPassing clouds.No wind88%30.01 "HgN/A
2:30 AM63 °FPassing clouds.No wind88%30.04 "HgN/A
2:00 AM64 °FPassing clouds.2 mph83%30.04 "HgN/A
1:30 AM63 °FPassing clouds.No wind88%30.04 "HgN/A
1:00 AM64 °FPassing clouds.No wind83%30.07 "HgN/A
12:30 AM64 °FPassing clouds.1 mph83%30.07 "HgN/A
12:00 AM68 °FPassing clouds.3 mph83%30.07 "HgN/A
11:30 PM
Aug 22
68 °FPassing clouds.3 mph83%30.07 "HgN/A
11:00 PM68 °FPassing clouds.5 mph83%30.04 "HgN/A
10:30 PM66 °FPassing clouds.2 mph83%30.04 "HgN/A
10:00 PM68 °FPassing clouds.5 mph83%30.04 "HgN/A
9:30 PM66 °FPassing clouds.3 mph83%30.04 "HgN/A
9:00 PM66 °FPassing clouds.5 mph83%30.01 "HgN/A
8:30 PM68 °FPassing clouds.6 mph78%30.01 "HgN/A
8:00 PM72 °FScattered clouds.6 mph69%30.01 "HgN/A
7:30 PM73 °FSunny.7 mph65%30.01 "Hg10 mi
7:00 PM73 °FSunny.9 mph65%30.01 "Hg10 mi
Weather by CustomWeather, © 2014

See weather overviewHow to use our weather pages